Temperature
8 8 8 7 7 7 7 7 7 7 7 7 7 7 7 7 7 7 7 7 7 7 7 7 7 6 6 6 6 5 5 5 4 4 4 4 4 3 3 2 2 2 1
7 7 6 6 6 6 6 6 6 6 6 6 6 6 6 6 6 6 6 6 6 6 6 6 6 6 6 5 5 5 4 4 4 3 3 3 3 2 2 2 1 1 1
6 5 5 5 5 5 5 5 5 5 5 5 5 5 5 6 6 6 6 6 6 6 5 5 5 5 5 4 4 4 3 3 3 2 2 2 2 2 1 1 1 1 0
4 4 4 4 4 4 4 4 4 4 4 4 5 5 5 5 5 5 5 5 5 5 4 4 4 3 3 3 3 2 2 2 2 2 1 1 1 1 1 1 0 0 0
3 3 3 3 3 3 3 3 3 3 4 4 4 4 4 4 4 4 4 4 3 3 3 2 2 2 2 1 1 1 1 1 1 1 1 0 0 0 0 -0 -0 -1 -1
2 2 2 2 1 2 2 2 3 3 3 3 3 3 3 3 3 3 3 2 2 2 2 1 1 1 0 0 0 -0 -0 -0 -0 -0 -0 -1 -1 -1 -1 -2 -2 -2 -2
2 1 1 1 1 1 1 2 2 2 2 2 2 2 2 2 2 2 2 2 1 1 1 0 0 -0 -0 -1 -1 -1 -1 -1 -1 -1 -2 -2 -2 -3 -3 -3 -3 -3 -3
1 0 0 0 0 1 1 1 1 1 1 2 2 2 2 2 2 1 1 1 1 0 -0 -0 -1 -1 -1 -1 -1 -2 -2 -2 -2 -3 -3 -4 -4 -4 -5 -5 -5 -5 -5
1 0 0 0 0 0 1 1 1 1 1 1 1 1 1 1 1 1 0 0 -0 -1 -1 -1 -2 -2 -2 -3 -3 -3 -3 -4 -4 -4 -5 -5 -5 -6 -6 -6 -6 -6 -5
1 1 1 0 1 1 1 1 1 1 1 1 1 1 1 1 0 0 -0 -1 -1 -1 -2 -2 -3 -3 -4 -4 -4 -4 -4 -5 -5 -5 -6 -6 -6 -6 -6 -6 -6 -6 -6
2 1 1 1 1 1 1 1 1 1 1 1 1 1 0 -0 -0 -1 -1 -1 -2 -2 -3 -3 -3 -4 -4 -5 -5 -5 -5 -6 -6 -6 -6 -6 -6 -6 -6 -6 -6 -6 -6
2 2 2 2 1 1 1 1 1 1 1 1 0 0 -0 -0 -1 -1 -2 -2 -2 -3 -3 -4 -4 -5 -5 -5 -6 -6 -6 -6 -6 -6 -6 -6 -6 -6 -6 -6 -6 -6 -6
3 2 2 2 1 1 1 1 1 1 1 1 0 0 -0 -1 -1 -1 -2 -2 -3 -3 -4 -4 -5 -5 -5 -6 -6 -6 -6 -6 -6 -6 -6 -6 -6 -6 -6 -6 -6 -6 -6
3 2 2 2 2 1 1 1 1 1 1 1 0 0 -0 -1 -1 -1 -2 -2 -3 -4 -4 -4 -5 -5 -6 -6 -6 -6 -6 -6 -6 -6 -6 -6 -7 -7 -7 -6 -6 -6 -6
3 2 2 2 2 1 1 1 1 1 1 0 0 -0 -0 -1 -1 -1 -2 -2 -3 -3 -4 -4 -5 -5 -6 -6 -6 -7 -7 -7 -7 -7 -7 -7 -7 -7 -7 -7 -7 -7 -6
3 3 2 2 2 1 1 1 1 1 0 0 -0 -0 -1 -1 -1 -2 -2 -3 -3 -4 -5 -5 -5 -5 -6 -6 -6 -7 -7 -7 -7 -7 -7 -7 -7 -7 -7 -7 -7 -7 -7
3 3 2 2 2 1 1 1 1 0 0 -0 -0 -1 -1 -1 -1 -2 -2 -3 -3 -4 -4 -5 -5 -5 -6 -6 -6 -7 -7 -7 -7 -7 -7 -7 -7 -7 -7 -7 -7 -8 -7
3 3 2 2 2 1 1 1 1 0 -0 -0 -1 -1 -1 -1 -2 -2 -2 -3 -3 -4 -4 -5 -5 -5 -6 -6 -6 -6 -7 -7 -7 -7 -7 -7 -8 -8 -7 -7 -8 -8 -8
3 3 2 2 2 1 1 1 0 0 -0 -0 -1 -1 -1 -2 -2 -2 -3 -3 -3 -3 -4 -4 -5 -5 -5 -6 -6 -6 -6 -6 -7 -7 -7 -7 -8 -8 -8 -8 -8 -8 -9
3 2 2 2 1 1 1 1 0 0 -0 -1 -1 -1 -2 -2 -2 -2 -3 -3 -3 -3 -4 -4 -4 -5 -5 -5 -6 -6 -6 -6 -6 -7 -7 -7 -8 -8 -8 -8 -8 -9 -9
2 2 2 1 1 1 1 0 -0 -1 -1 -1 -1 -2 -2 -2 -2 -2 -3 -3 -3 -3 -4 -4 -4 -4 -5 -5 -5 -6 -6 -6 -6 -7 -7 -7 -8 -8 -8 -9 -9 -9 -9
2 1 1 1 1 1 0 -0 -1 -1 -1 -2 -2 -2 -2 -2 -2 -2 -3 -3 -3 -3 -4 -4 -4 -4 -5 -5 -6 -6 -6 -6 -7 -7 -7 -8 -8 -8 -9 -9 -9 -9 -9
1 1 1 0 0 0 -0 -0 -1 -1 -1 -2 -2 -2 -3 -3 -3 -3 -3 -3 -3 -3 -4 -4 -4 -4 -5 -5 -6 -6 -6 -6 -7 -7 -8 -8 -8 -9 -9 -9 -9 -9 -9
1 0 0 -0 -0 -0 -0 -1 -1 -1 -2 -2 -3 -3 -3 -3 -3 -3 -3 -3 -3 -3 -4 -4 -4 -4 -5 -5 -6 -6 -6 -7 -7 -7 -8 -8 -8 -9 -9 -9 -9 -9 -10
-0 -0 -1 -1 -1 -1 -1 -1 -2 -2 -2 -3 -3 -3 -3 -3 -3 -3 -3 -3 -3 -4 -4 -4 -5 -5 -5 -5 -6 -6 -6 -7 -7 -8 -8 -9 -9 -9 -9 -10 -10 -10 -10
-1 -1 -1 -1 -1 -2 -2 -2 -2 -3 -3 -3 -3 -4 -4 -4 -4 -4 -4 -4 -4 -4 -4 -4 -5 -5 -5 -6 -6 -6 -7 -7 -8 -8 -9 -10 -10 -10 -10 -10 -10 -10 -10
Wind_Speed
3 3 4 4 4 4 4 5 5 5 6 6 6 6 7 8 7 7 7 7 8 7 7 7 7 6 5 5 4 3 3 1 3 1 1 2 2 1 2 3 3 2 2
3 3 4 4 4 5 5 5 6 6 6 6 6 7 8 8 8 8 8 8 8 8 8 8 7 6 7 5 4 4 3 3 1 1 1 2 2 2 2 3 4 4 2
3 3 4 4 4 5 5 5 6 6 7 7 8 8 8 8 8 8 8 9 9 9 8 8 7 7 7 5 5 5 4 3 3 1 2 2 2 2 3 3 3 4 3
3 3 3 3 4 4 5 6 6 6 7 7 7 8 8 8 8 8 8 9 9 8 8 7 7 6 6 5 5 5 4 4 4 3 2 2 2 2 2 2 2 3 2
4 3 3 3 4 5 6 6 6 7 7 7 7 7 7 7 7 7 7 8 8 8 8 8 8 9 8 6 5 4 4 4 4 3 3 2 3 3 2 2 2 2 2
4 4 4 4 5 5 6 6 7 7 7 7 7 7 8 8 11 12 9 7 7 7 7 6 7 9 11 12 11 10 7 5 3 3 2 3 2 2 2 2 1 2 2
5 4 4 5 5 5 6 7 7 6 6 7 7 7 7 9 12 12 12 7 7 6 6 6 5 7 8 6 9 11 11 12 8 3 2 2 2 1 1 1 1 0 2
5 5 5 5 6 6 6 6 6 5 5 5 6 6 6 7 10 10 10 7 6 5 5 4 5 5 5 6 6 6 6 6 7 5 3 1 1 1 1 1 1 1 3
5 5 5 5 6 6 6 5 5 5 5 4 4 5 5 5 8 8 8 4 4 4 4 4 4 4 7 8 5 4 4 5 7 7 5 4 5 4 1 2 1 1 3
6 5 5 5 6 6 6 5 4 4 4 3 3 3 3 3 4 6 6 3 3 3 3 4 6 5 7 6 3 2 3 3 3 4 5 5 5 5 4 2 3 3 2
6 6 6 5 5 6 5 4 4 4 3 2 1 1 2 3 4 3 3 2 1 1 1 2 4 7 7 7 4 0 3 1 1 2 3 3 2 2 3 2 1 4 4
7 6 6 6 5 5 5 4 4 4 3 2 0 2 2 3 3 3 2 1 2 1 1 2 4 7 7 7 4 5 5 3 1 1 2 2 2 2 2 4 4 6 7
7 7 6 6 5 5 5 5 4 4 3 3 3 3 3 2 3 4 3 3 2 1 2 4 6 7 6 4 5 5 3 2 1 2 2 3 3 3 3 4 5 6 8
8 7 6 6 6 5 5 5 5 5 4 4 4 4 3 3 3 3 2 2 3 3 2 4 5 6 4 4 3 3 2 2 2 2 3 3 3 2 3 2 3 4 4
9 8 7 7 7 6 6 5 6 5 6 5 5 4 4 4 4 6 4 4 4 4 3 1 1 2 2 2 2 2 2 2 2 2 3 3 4 4 4 3 3 3 4
9 9 7 7 6 6 5 4 8 8 9 11 9 6 5 6 6 6 6 6 7 7 2 1 2 2 3 3 3 3 3 3 3 3 3 4 4 5 5 4 4 5 7
11 10 8 7 7 7 6 6 5 5 8 9 9 9 9 8 8 7 7 7 8 6 2 2 3 4 4 4 4 3 3 4 3 4 4 5 5 5 5 6 6 6 7
11 11 10 8 8 7 7 7 6 5 4 4 6 9 10 10 9 9 8 6 4 3 3 4 4 4 4 4 4 4 4 4 4 5 5 5 5 5 6 7 6 7 8
11 9 9 8 8 8 7 7 6 6 6 5 3 4 8 8 9 9 7 3 4 4 4 5 5 5 5 5 5 5 5 5 5 5 6 6 6 6 7 7 7 12 11
10 12 11 8 8 8 7 7 7 7 6 6 6 5 3 3 3 4 4 4 5 5 5 5 5 5 5 5 5 5 5 6 6 6 6 6 6 6 8 9 9 9 9
7 9 14 9 8 8 8 8 8 7 7 7 6 6 8 5 6 6 5 5 6 6 6 5 5 5 5 5 5 6 7 6 6 7 7 7 6 7 8 9 9 10 10
6 7 8 8 8 8 8 7 7 7 7 7 5 5 10 6 5 6 6 6 6 6 5 5 5 5 6 6 6 6 6 7 7 7 7 7 7 8 9 9 9 10 10
6 7 7 7 7 9 9 7 7 7 7 7 6 5 5 5 6 6 6 6 5 5 6 6 5 5 8 10 11 8 8 9 8 7 8 8 8 9 9 10 11 12 12
5 6 7 6 7 7 7 7 7 7 7 6 6 6 6 6 6 6 6 5 5 5 7 8 8 9 11 11 12 13 14 15 14 12 11 11 11 10 10 11 13 14 14
5 5 6 6 6 7 7 7 7 7 7 7 6 6 6 6 6 6 6 5 6 6 7 9 10 11 13 15 15 15 16 18 18 17 15 11 13 13 13 14 14 15 16
4 5 5 5 5 6 6 6 6 7 7 6 6 6 6 6 6 6 5 5 5 6 6 8 11 13 15 15 17 18 18 19 20 21 18 12 12 13 13 14 16 16 18
Wind_Direction
62 52 42 26 25 35 41 35 34 35 34 41 46 50 48 43 41 52 53 53 62 56 50 58 52 43 43 32 30 30 19 341 278 349 43 357 349 349 29 80 113 142 191
75 64 51 39 40 46 46 43 46 49 44 49 54 57 55 52 51 58 61 58 62 59 52 55 48 49 47 37 39 40 29 14 348 330 17 11 13 19 48 69 74 81 78
95 82 65 54 54 54 54 55 57 60 57 56 60 62 60 59 60 61 66 66 65 62 57 57 50 53 50 40 41 38 26 22 23 49 35 27 25 33 53 58 65 55 61
117 104 87 74 72 72 71 69 67 67 64 63 66 70 70 67 65 67 71 72 69 62 55 53 50 54 58 49 45 37 34 36 37 53 49 36 32 27 50 54 58 44 36
138 128 113 101 93 90 84 79 75 72 71 67 67 67 71 72 71 72 70 72 69 63 52 44 44 49 58 66 63 47 43 44 44 47 41 32 27 26 33 29 51 27 25
151 144 134 120 107 101 95 89 83 77 71 66 63 64 67 72 77 80 80 69 66 61 52 38 37 41 44 48 53 51 51 53 46 47 37 39 24 21 20 32 45 29 341
149 145 139 130 119 110 105 98 91 84 77 69 62 62 65 72 76 78 80 75 68 60 53 43 39 35 45 41 44 43 39 43 50 71 57 34 13 2 59 32 33 2 271
149 147 143 137 127 117 110 103 97 89 81 74 63 56 56 66 77 80 83 74 67 56 49 45 39 18 37 54 48 38 30 30 44 57 77 23 300 237 186 173 195 280 286
157 154 149 142 135 129 121 114 109 103 89 78 69 60 52 42 71 82 85 76 64 43 27 28 38 15 21 41 56 36 20 5 19 29 26 10 354 331 240 136 119 15 313
163 154 146 143 140 135 129 123 113 112 111 101 77 57 44 13 53 84 97 89 65 33 15 9 10 7 7 22 79 43 355 326 343 355 359 358 1 4 22 140 170 172 231
154 150 147 143 140 137 129 121 124 123 122 111 77 14 354 349 5 32 97 124 117 50 6 349 335 346 351 355 11 294 295 326 51 342 331 336 353 8 20 23 169 173 192
153 154 154 151 153 146 138 136 139 147 152 165 233 294 290 307 323 324 350 53 138 155 298 294 303 327 338 345 348 328 350 40 34 337 331 332 331 320 312 312 293 255 237
162 165 163 161 161 155 160 165 168 177 186 204 221 248 268 268 287 303 323 340 349 199 257 301 322 336 350 349 332 343 23 31 340 320 308 293 274 270 287 302 298 287 276
174 177 175 177 181 179 184 185 188 194 202 214 221 236 252 266 264 260 274 301 307 309 300 309 329 340 350 342 348 4 2 310 293 279 283 283 287 285 287 287 293 309 305
182 184 186 191 191 195 202 204 203 209 202 205 214 215 219 247 252 241 226 225 229 246 255 196 336 335 333 330 324 319 318 323 324 301 292 296 296 295 291 287 278 286 277
189 193 195 194 193 196 201 223 237 228 234 233 222 210 223 237 256 260 265 271 279 284 286 188 259 271 278 286 295 301 298 291 284 278 280 280 285 288 290 284 268 268 273
196 195 193 194 195 196 198 204 223 235 238 238 235 234 236 243 252 258 264 271 276 284 242 232 249 257 260 264 264 261 265 269 269 270 268 269 270 273 276 278 274 270 271
200 198 195 197 196 198 200 202 202 205 221 242 244 245 248 250 252 255 259 268 269 255 222 238 245 248 249 252 254 256 262 270 266 263 263 262 259 262 269 270 267 264 271
200 200 198 196 196 199 198 198 201 208 215 223 230 251 248 251 254 255 255 221 228 242 241 241 241 243 245 247 250 251 254 260 262 261 261 260 257 256 263 266 267 274 276
204 201 192 193 194 196 197 200 204 208 215 220 227 227 213 213 226 240 231 219 229 240 242 243 244 243 242 245 248 250 255 257 260 258 259 259 257 254 262 267 267 269 269
198 199 197 196 199 199 198 203 205 205 211 219 226 222 213 209 223 228 228 228 230 237 239 241 242 243 242 243 244 247 252 257 256 257 260 260 257 260 261 263 265 266 268
190 193 195 201 200 200 202 201 201 205 212 218 222 228 237 225 218 226 229 233 231 230 228 232 238 238 236 236 239 244 250 257 257 254 256 257 256 260 262 263 265 267 268
188 192 197 201 201 206 206 202 203 207 213 214 212 213 221 223 226 228 232 233 232 232 234 233 238 246 249 248 243 235 245 254 254 252 258 264 262 262 263 264 265 268 270
191 196 201 202 200 203 205 204 204 209 212 213 213 217 221 224 228 232 231 231 231 233 240 240 243 248 255 259 257 251 249 255 259 257 251 256 261 264 263 265 266 267 268
193 199 205 206 205 207 209 209 208 209 212 215 215 219 223 224 229 232 231 231 234 239 244 247 250 255 259 261 263 263 266 270 270 266 258 253 257 257 261 264 267 270 270
201 207 210 210 210 210 210 212 212 210 213 217 217 218 221 225 231 233 232 232 236 242 247 252 253 257 263 268 272 274 277 279 280 280 278 273 271 270 269 271 271 271 274
Height
1505 1504 1503 1503 1503 1503 1503 1503 1502 1502 1502 1501 1501 1500 1499 1499 1498 1498 1497 1496 1496 1496 1495 1495 1494 1494 1494 1493 1493 1492 1491 1490 1489 1488 1486 1485 1485 1484 1483 1484 1485 1486 1488
1501 1500 1499 1499 1499 1499 1499 1499 1499 1499 1499 1498 1498 1497 1497 1496 1496 1495 1495 1494 1493 1493 1492 1492 1491 1491 1490 1489 1489 1488 1487 1486 1485 1484 1483 1482 1482 1481 1481 1482 1483 1484 1486
1496 1496 1495 1496 1496 1496 1496 1496 1497 1497 1496 1496 1496 1495 1495 1494 1494 1493 1492 1492 1491 1491 1490 1490 1489 1488 1487 1487 1486 1485 1484 1483 1482 1482 1481 1480 1480 1480 1480 1480 1481 1482 1483
1493 1492 1492 1493 1493 1494 1494 1494 1494 1495 1495 1494 1494 1493 1493 1493 1492 1491 1491 1490 1489 1489 1488 1488 1487 1486 1486 1485 1484 1483 1482 1482 1481 1480 1480 1479 1479 1478 1478 1478 1479 1479 1479
1489 1489 1490 1490 1491 1491 1492 1492 1493 1493 1493 1493 1492 1492 1492 1491 1491 1490 1489 1489 1488 1487 1487 1486 1486 1485 1484 1483 1483 1482 1481 1480 1479 1479 1478 1478 1477 1477 1476 1476 1476 1476 1476
1487 1487 1487 1488 1489 1489 1490 1491 1491 1492 1492 1492 1491 1491 1491 1490 1490 1489 1489 1488 1487 1487 1486 1485 1485 1484 1483 1482 1481 1480 1480 1479 1477 1477 1476 1476 1475 1474 1474 1473 1473 1472 1472
1484 1485 1485 1486 1487 1488 1489 1490 1490 1491 1491 1491 1491 1491 1490 1490 1490 1489 1488 1488 1487 1486 1485 1484 1483 1482 1482 1481 1479 1478 1477 1476 1476 1475 1474 1473 1473 1472 1471 1470 1470 1469 1469
1482 1483 1484 1485 1485 1487 1488 1489 1490 1490 1491 1491 1491 1491 1490 1490 1489 1489 1488 1487 1486 1485 1484 1483 1482 1480 1479 1478 1477 1476 1475 1474 1472 1472 1471 1471 1470 1469 1468 1468 1467 1466 1465
1480 1481 1482 1483 1484 1486 1487 1488 1489 1490 1491 1491 1491 1490 1490 1489 1489 1488 1487 1486 1485 1483 1482 1481 1479 1478 1477 1475 1474 1473 1472 1471 1470 1469 1469 1468 1467 1467 1466 1465 1464 1463 1462
1478 1480 1481 1482 1484 1485 1487 1488 1489 1490 1490 1490 1490 1490 1489 1489 1488 1487 1486 1485 1483 1482 1480 1479 1477 1476 1474 1473 1472 1471 1470 1469 1468 1467 1466 1466 1465 1464 1463 1463 1462 1461 1460
1477 1479 1480 1481 1483 1484 1486 1487 1488 1489 1489 1489 1489 1489 1488 1488 1486 1485 1484 1483 1481 1480 1478 1477 1475 1474 1472 1471 1470 1469 1468 1467 1466 1465 1464 1463 1463 1462 1461 1460 1460 1459 1458
1477 1478 1479 1481 1482 1484 1485 1486 1487 1488 1488 1488 1488 1488 1487 1486 1485 1484 1482 1481 1479 1477 1476 1474 1473 1471 1470 1469 1468 1467 1466 1465 1464 1463 1462 1462 1461 1460 1459 1458 1457 1456 1455
1475 1477 1478 1480 1481 1483 1484 1485 1486 1486 1487 1486 1487 1486 1485 1484 1483 1482 1480 1478 1476 1475 1473 1471 1470 1469 1467 1466 1465 1464 1464 1463 1462 1461 1460 1459 1458 1457 1457 1456 1454 1453 1451
1474 1475 1477 1478 1480 1481 1482 1483 1484 1484 1484 1484 1484 1484 1483 1482 1481 1479 1478 1476 1474 1472 1470 1469 1467 1466 1465 1464 1463 1462 1461 1460 1459 1458 1457 1456 1455 1454 1453 1452 1450 1449 1447
1472 1473 1475 1476 1477 1478 1479 1480 1481 1482 1482 1482 1482 1481 1480 1479 1478 1476 1475 1472 1471 1469 1467 1465 1464 1463 1462 1461 1460 1459 1458 1457 1456 1455 1454 1453 1452 1450 1449 1447 1445 1443 1441
1468 1470 1471 1473 1474 1475 1476 1477 1478 1479 1479 1478 1478 1478 1477 1476 1474 1473 1471 1469 1467 1466 1464 1462 1461 1459 1458 1457 1456 1455 1455 1454 1452 1451 1450 1449 1447 1446 1444 1442 1440 1438 1435
1464 1466 1468 1469 1470 1471 1472 1473 1474 1475 1475 1475 1475 1474 1473 1472 1471 1469 1468 1466 1464 1463 1461 1459 1457 1456 1455 1454 1452 1451 1451 1450 1448 1447 1446 1444 1442 1440 1439 1437 1435 1432 1430
1459 1461 1462 1464 1465 1467 1468 1469 1470 1470 1471 1471 1471 1470 1469 1468 1467 1466 1464 1462 1460 1459 1457 1455 1454 1452 1451 1450 1449 1447 1446 1445 1444 1443 1441 1439 1437 1435 1433 1431 1428 1426 1423
1453 1454 1456 1458 1460 1461 1462 1463 1464 1465 1465 1466 1466 1466 1465 1464 1463 1462 1460 1458 1457 1455 1453 1452 1450 1448 1447 1446 1444 1443 1442 1440 1439 1438 1436 1434 1432 1429 1427 1424 1422 1419 1416
1446 1448 1450 1452 1453 1455 1456 1457 1458 1459 1460 1460 1461 1461 1461 1459 1458 1457 1456 1454 1452 1450 1449 1447 1446 1444 1443 1441 1440 1438 1437 1436 1434 1432 1430 1428 1426 1423 1420 1418 1415 1412 1409
1439 1441 1443 1444 1446 1447 1449 1450 1451 1452 1453 1454 1455 1456 1455 1454 1453 1452 1451 1449 1448 1446 1444 1443 1442 1440 1439 1437 1435 1433 1432 1430 1429 1426 1424 1422 1419 1416 1413 1411 1408 1405 1401
1433 1434 1435 1437 1438 1440 1441 1443 1444 1445 1446 1448 1449 1449 1449 1448 1447 1447 1446 1444 1443 1441 1440 1438 1437 1436 1434 1432 1430 1428 1426 1424 1422 1420 1417 1414 1412 1409 1406 1403 1400 1397 1394
1427 1428 1429 1430 1431 1433 1434 1435 1437 1438 1439 1440 1442 1443 1443 1442 1442 1441 1441 1439 1438 1436 1435 1433 1432 1430 1429 1427 1425 1423 1420 1418 1416 1413 1410 1407 1404 1401 1398 1395 1392 1389 1386
1422 1422 1423 1424 1425 1426 1427 1428 1430 1431 1432 1434 1435 1436 1437 1437 1437 1436 1435 1434 1433 1431 1430 1428 1427 1425 1423 1421 1419 1417 1414 1411 1409 1406 1403 1399 1396 1393 1391 1387 1384 1381 1378
1416 1417 1417 1418 1418 1419 1420 1421 1423 1424 1426 1427 1429 1430 1431 1431 1431 1431 1430 1429 1427 1426 1425 1423 1421 1419 1417 1415 1413 1410 1407 1405 1402 1398 1395 1392 1388 1385 1383 1379 1376 1373 1369
1411 1412 1412 1412 1413 1413 1414 1415 1417 1418 1420 1422 1423 1424 1425 1425 1425 1425 1425 1423 1422 1420 1419 1417 1416 1413 1411 1409 1406 1403 1400 1398 1395 1392 1389 1385 1382 1378 1376 1372 1368 1365 1361